[[{"header":{"parameterUnit":"m.s-1","parameterCategory":1,"la1":30.2991,"la2":30.254,"lo1":-89.0895,"lo2":-89.0444,"dy":0.0017,"dx":0.0017,"nx":28,"ny":28,"refTime":"2025-04-08T03:00:00:Z","depth":0,"parameterNumber":2,"parameterNumberName":"U-component_of_WINDS"},"data":[0,0,0,0,0,0,0,0,0,0,0,0,0,0,0,0,0,0,0,0,0,0,0,0,0,0,0,0,0,0,0,0,0,0,0,0,0,0,0,0,0,0,0,0,0,0,0,0,0,0,0,0,0,0,0,0,0,0,-0.9772,-0.9774,0,-0.9975,-0.9977,-0.998,-1.0013,-1.0011,-1.0009,-1.0007,-1.0221,-1.0228,-1.0235,0,0,0,0,0,0,0,0,0,0,0,0,0,-0.9417,-0.9424,-0.9772,-0.9774,-0.9777,-0.9975,-0.9977,-0.998,-1.0013,-1.0011,-1.0009,-1.0007,-1.0218,-1.0227,-1.0236,0,0,0,0,0,0,0,0,0,0,0,0,0,-0.9591,-0.9426,-0.9771,-0.9817,-0.9823,-0.9974,-0.9978,-0.9981,-1.0013,-1.0011,-1.0008,-1.0005,-1.0215,-1.0226,-1.0237,-1.0358,0,0,-1.027,-1.0275,0,0,0,0,0,0,0,0,-0.9581,-0.9604,-0.9808,-0.9814,-0.9821,-0.9966,-0.9931,-1.0108,-1.0014,-0.9941,-1.0007,-1.0004,-1.0138,-1.0155,-1.02,-1.0368,-1.0377,-1.0271,-1.0278,-1.0283,-1.0286,0,0,0,0,0,0,0,-0.9569,-0.9596,-0.9852,-0.9811,-0.9819,-0.9829,-0.9851,-0.9964,-1.0053,-0.9947,-0.995,-0.9974,-1.0141,-1.0189,-1.0205,-1.0381,-1.0271,-1.0281,-1.0288,-1.0292,-1.066,-1.0663,0,0,0,0,0,0,-0.9548,-0.9585,-0.9846,-0.9858,-0.9692,-0.9837,-0.9862,-0.9922,-1.0051,-1.0068,-0.9976,-0.9974,-1.0171,-1.0192,-1.0212,-1.0364,-1.0283,-1.0293,-1.0299,-1.0657,-1.0661,-1.0664,0,0,0,0,0,0,-0.954,-0.9571,-0.9838,-0.9723,-0.9757,-0.9846,-0.9914,-0.9927,-0.9975,-1.0073,-1.0089,-1.0008,-1.017,-1.0197,-1.0322,-1.0372,-1.0298,-1.0308,-1.0653,-1.0658,-1.0663,-1.0667,0,0,0,0,0,0,-0.953,-0.9568,-0.9614,-0.9723,-0.9763,-0.9942,-0.9917,-0.9933,-0.9993,-0.9993,-1.0107,-1.0123,-1.017,-1.0305,-1.0333,-1.0386,-1.0317,-1.0649,-1.0656,-1.0661,-1.0663,-1.0672,-1.0679,0,0,0,0,0,-0.9517,-0.9608,-0.9616,-0.9647,-0.9822,-0.9945,-0.9968,-1.0019,-0.9997,-1.0045,-1.0108,-1.012,-1.0361,-1.0317,-1.0349,-1.0406,-1.0646,-1.0654,-1.0661,-1.066,-1.067,-1.0679,0,0,0,0,0,0,-0.9504,-0.9623,-0.9634,-0.9762,-0.9843,-0.995,-1.0012,-1.0028,-1.0118,-1.0115,-1.0175,-1.02,-1.0322,-1.0377,-1.0325,-1.0531,-1.0503,-1.0516,-1.0491,-1.0502,-1.0509,-1.0494,-1.0326,0,0,0,0,0,-0.9516,-0.9604,-0.9704,-0.9808,-0.9848,-0.9923,-0.9978,-1.001,-1.0097,-1.0131,-1.0203,-1.0289,-1.0384,-1.0446,-1.0539,-1.0671,-1.0697,-1.0726,-1.0733,-1.0739,-1.0751,-1.0826,-1.084,-1.0688,-1.0688,-1.0688,0,0,-0.9542,-0.9618,-0.967,-0.9807,-0.9874,-0.9965,-0.9951,-1.0048,-1.0117,-1.0147,-1.0269,-1.0324,-1.0424,-1.0552,-1.0613,-1.0602,-1.0799,-1.0748,-1.0752,-1.0761,-1.0835,-1.0849,-1.0862,-1.0693,-1.0692,-1.0691,0,0,-0.9636,-0.9702,-0.9796,-0.9862,-0.9962,-1.0011,-1.0034,-1.0139,-1.0176,-1.0299,-1.0323,-1.0407,-1.0569,-1.0639,-1.0696,-1.0816,-1.0831,-1.0844,-1.0886,-1.0959,-1.0971,-1.0982,-1.1026,-1.104,-1.0855,-1.0855,-1.0855,0,-0.9657,-0.9793,-0.9843,-0.9939,-0.9999,-1.0028,-1.0125,-1.0187,-1.0313,-1.0355,-1.0339,-1.0544,-1.0613,-1.0759,-1.0788,-1.0833,-1.0862,-1.0832,-1.0964,-1.0976,-1.0987,-1.103,-1.1046,-1.0856,-1.0856,-1.0856,-1.0856,0,-0.9814,-0.9909,-0.9973,-1.0092,-1.0159,-1.0255,-1.0321,-1.0383,-1.0409,-1.046,-1.0585,-1.0668,-1.0779,-1.0816,-1.0843,-1.0966,-1.0956,-1.0952,-1.0925,-1.1002,-1.1043,-1.106,-1.0858,-1.0858,-1.0857,-1.0857,0,0,-0.9907,-1.0051,-1.0074,-1.0129,-1.024,-1.0316,-1.0413,-1.0519,-1.0572,-1.0658,-1.0743,-1.0879,-1.0876,-1.094,-1.0975,-1.1038,-1.1129,-1.1027,-1.103,-1.1044,-1.1272,-1.1275,-1.1293,-1.1139,-1.1142,-1.1145,-1.1264,0,-1.0016,-1.0189,-1.0236,-1.0384,-1.0472,-1.05,-1.0586,-1.0664,-1.0715,-1.0799,-1.0855,-1.0951,-1.0939,-1.0978,-1.1041,-1.1104,-1.1176,-1.1096,-1.122,-1.1224,-1.1195,-1.1314,-1.1318,-1.1426,-1.128,-1.1283,-1.1285,0,-1.0166,-1.0252,-1.0408,-1.0508,-1.0547,-1.0623,-1.0725,-1.0804,-1.0894,-1.0926,-1.0997,-1.1026,-1.1131,-1.1097,-1.1243,-1.1187,-1.1241,-1.1279,-1.1285,-1.1299,-1.126,-1.1333,-1.1462,-1.1479,-1.131,-1.1308,-1.1307,0,-1.0219,-1.0375,-1.0489,-1.0534,-1.0654,-1.0706,-1.0759,-1.0846,-1.0907,-1.0997,-1.1037,-1.1138,-1.1193,-1.1271,-1.1327,-1.1297,-1.1468,-1.1439,-1.15,-1.1498,-1.1536,-1.1533,-1.1676,-1.1568,-1.1567,-1.1567,-1.1567,0,-1.0336,-1.0431,-1.0514,-1.0584,-1.0691,-1.0745,-1.085,-1.0904,-1.0981,-1.1064,-1.1094,-1.1171,-1.1239,-1.1326,-1.137,-1.1485,-1.151,-1.154,-1.1551,-1.1538,-1.1534,-1.1575,-1.1569,-1.1572,-1.1571,-1.157,-1.1569,0,-1.0415,-1.0474,-1.06,-1.0702,-1.073,-1.0805,-1.0893,-1.0963,-1.1014,-1.1117,-1.1145,-1.1225,-1.1329,-1.1391,-1.1523,-1.1553,-1.1679,-1.1687,-1.1648,-1.1654,-1.1711,-1.1705,-1.1886,-1.1913,-1.1786,-1.1787,-1.1788,0,-1.0486,-1.0559,-1.0669,-1.0725,-1.0778,-1.0868,-1.093,-1.0986,-1.1049,-1.1157,-1.1215,-1.1319,-1.1406,-1.157,-1.1641,-1.1742,-1.1753,-1.181,-1.1769,-1.1753,-1.1755,-1.1751,-1.1759,-1.1817,-1.1818,-1.1819,-1.182,0,-1.0607,-1.0632,-1.0719,-1.0817,-1.0889,-1.0969,-1.1049,-1.1094,-1.1163,-1.1233,-1.1338,-1.1405,-1.1539,-1.1643,-1.175,-1.1806,-1.1825,-1.1831,-1.1851,-1.1839,-1.1814,-1.183,-1.1668,-1.1828,-1.1827,-1.1826,-1.1826,-1.1825,-1.0685,-1.0751,-1.0838,-1.0935,-1.1,-1.1074,-1.1144,-1.1203,-1.1291,-1.1402,-1.143,-1.1541,-1.163,-1.1775,-1.1833,-1.1921,-1.1913,-1.1941,-1.1949,-1.1955,-1.1957,-1.1799,-1.1941,-1.1941,-1.1941,-1.1941,-1.1941,0,-1.0808,-1.0865,-1.0953,-1.1062,-1.1138,-1.1147,-1.1236,-1.13,-1.1396,-1.1476,-1.156,-1.1681,-1.1782,-1.1861,-1.1965,-1.202,-1.2032,-1.2046,-1.2043,-1.2056,-1.1958,-1.1931,-1.2035,-1.2035,-1.2035,-1.2035,-1.2035,-1.2035,-1.0881,-1.0994,-1.103,-1.1176,-1.1233,-1.134,-1.139,-1.1458,-1.1523,-1.1656,-1.1739,-1.1789,-1.1869,-1.1979,-1.2073,-1.2093,-1.2131,-1.2144,-1.2166,-1.2073,-1.2063,-1.2053,-1.2028,-1.2151,-1.2151,-1.2257,-1.2258,-1.2259]},{"header":{"parameterUnit":"m.s-1","parameterCategory":1,"la1":30.2991,"la2":30.254,"lo1":-89.0895,"lo2":-89.0444,"dy":0.0017,"dx":0.0017,"nx":28,"ny":28,"refTime":"2025-04-08T03:00:00:Z","depth":0,"parameterNumber":3,"parameterNumberName":"V-component_of_WINDS"},"data":[0,0,0,0,0,0,0,0,0,0,0,0,0,0,0,0,0,0,0,0,0,0,0,0,0,0,0,0,0,0,0,0,0,0,0,0,0,0,0,0,0,0,0,0,0,0,0,0,0,0,0,0,0,0,0,0,0,0,-4.8253,-4.8254,0,-4.8323,-4.8323,-4.8324,-4.8232,-4.8228,-4.8225,-4.8222,-4.8291,-4.8296,-4.8301,0,0,0,0,0,0,0,0,0,0,0,0,0,-4.8037,-4.8041,-4.8253,-4.8254,-4.8255,-4.8322,-4.8323,-4.8324,-4.8232,-4.8228,-4.8224,-4.8221,-4.8289,-4.8295,-4.8301,0,0,0,0,0,0,0,0,0,0,0,0,0,-4.8121,-4.8043,-4.8253,-4.8217,-4.8215,-4.8322,-4.8323,-4.8325,-4.8233,-4.8228,-4.8223,-4.8219,-4.8287,-4.8295,-4.8302,-4.8447,0,0,-4.8324,-4.8328,0,0,0,0,0,0,0,0,-4.8116,-4.8129,-4.8222,-4.822,-4.8217,-4.8263,-4.8272,-4.8366,-4.8235,-4.8226,-4.8222,-4.8216,-4.8286,-4.8293,-4.8317,-4.845,-4.8453,-4.8325,-4.833,-4.8333,-4.8335,0,0,0,0,0,0,0,-4.8111,-4.8125,-4.8281,-4.8223,-4.822,-4.8196,-4.8203,-4.8289,-4.8283,-4.8227,-4.822,-4.823,-4.8283,-4.831,-4.8318,-4.8454,-4.8325,-4.8331,-4.8336,-4.8339,-4.8707,-4.8712,0,0,0,0,0,0,-4.8109,-4.8121,-4.8278,-4.8283,-4.8154,-4.8204,-4.8211,-4.8254,-4.8282,-4.8281,-4.8234,-4.8225,-4.83,-4.8309,-4.832,-4.849,-4.8333,-4.834,-4.8344,-4.8702,-4.8708,-4.8714,0,0,0,0,0,0,-4.8105,-4.8124,-4.8276,-4.82,-4.8218,-4.8213,-4.8261,-4.8258,-4.8284,-4.8287,-4.8285,-4.8262,-4.8296,-4.8309,-4.8416,-4.8491,-4.8343,-4.835,-4.8696,-4.8704,-4.8711,-4.8833,0,0,0,0,0,0,-4.8099,-4.8123,-4.818,-4.8202,-4.8222,-4.8372,-4.8266,-4.8263,-4.8297,-4.8286,-4.8313,-4.8313,-4.8293,-4.8405,-4.8423,-4.8499,-4.8355,-4.8689,-4.8699,-4.8709,-4.8822,-4.8844,-4.8863,0,0,0,0,0,-4.8092,-4.8212,-4.8183,-4.8203,-4.8293,-4.8377,-4.8388,-4.8363,-4.8304,-4.836,-4.8361,-4.8312,-4.848,-4.8417,-4.8436,-4.8515,-4.8684,-4.8696,-4.8708,-4.8813,-4.884,-4.8863,0,0,0,0,0,0,-4.8198,-4.8214,-4.8183,-4.8313,-4.8344,-4.8361,-4.8431,-4.8393,-4.8441,-4.8429,-4.8395,-4.8402,-4.8515,-4.8525,-4.8455,-4.8656,-4.8572,-4.8588,-4.8645,-4.8671,-4.8691,-4.8686,-4.8362,0,0,0,0,0,-4.8237,-4.8305,-4.8314,-4.8429,-4.8446,-4.8436,-4.8472,-4.845,-4.848,-4.8493,-4.8502,-4.8533,-4.8592,-4.8632,-4.8686,-4.8823,-4.8826,-4.8886,-4.8907,-4.8924,-4.8938,-4.9009,-4.9035,-4.8754,-4.8754,-4.8753,0,0,-4.8318,-4.8334,-4.838,-4.845,-4.8472,-4.8541,-4.8448,-4.8526,-4.8577,-4.8504,-4.8605,-4.8613,-4.8644,-4.8766,-4.882,-4.8778,-4.9016,-4.8939,-4.8952,-4.8958,-4.9024,-4.9051,-4.9074,-4.8762,-4.876,-4.8759,0,0,-4.85,-4.852,-4.8617,-4.864,-4.8673,-4.8665,-4.8688,-4.871,-4.8713,-4.8813,-4.876,-4.8819,-4.8922,-4.8946,-4.8972,-4.916,-4.9117,-4.9179,-4.9286,-4.9355,-4.9377,-4.9397,-4.9462,-4.9487,-4.9194,-4.9194,-4.9194,0,-4.8596,-4.87,-4.8671,-4.8753,-4.8784,-4.8722,-4.8818,-4.8841,-4.8891,-4.8913,-4.8866,-4.8992,-4.9009,-4.9135,-4.918,-4.9204,-4.9228,-4.9176,-4.9376,-4.9396,-4.9413,-4.9476,-4.9501,-4.9201,-4.92,-4.92,-4.9199,0,-4.8815,-4.8888,-4.8961,-4.9011,-4.9051,-4.9139,-4.9122,-4.9165,-4.9139,-4.9136,-4.9237,-4.9255,-4.9312,-4.9339,-4.9315,-4.9461,-4.9433,-4.9382,-4.9297,-4.9448,-4.9506,-4.953,-4.9212,-4.9209,-4.9207,-4.9205,0,0,-4.9069,-4.9099,-4.9127,-4.9147,-4.9178,-4.9233,-4.9317,-4.9372,-4.941,-4.9445,-4.9514,-4.9601,-4.9553,-4.9582,-4.9559,-4.962,-4.9766,-4.956,-4.9561,-4.9597,-4.9925,-4.9964,-4.9992,-4.9737,-4.9741,-4.9745,-4.9922,0,-4.925,-4.9398,-4.9372,-4.9514,-4.958,-4.9519,-4.9592,-4.9618,-4.9617,-4.9671,-4.9668,-4.973,-4.9662,-4.9679,-4.9737,-4.9736,-4.9831,-4.9723,-4.9799,-4.9802,-4.9793,-5.0023,-5.0064,-5.0231,-4.9945,-4.9949,-4.9952,0,-4.9483,-4.9526,-4.9675,-4.9693,-4.9719,-4.9786,-4.9833,-4.9886,-4.9913,-4.9907,-4.9939,-4.9904,-4.9985,-4.9899,-5.001,-4.9937,-4.9966,-4.997,-4.9976,-4.9982,-4.9886,-5.0035,-5.0284,-5.0309,-4.9987,-4.9984,-4.9982,0,-4.9651,-4.9747,-4.9848,-4.9867,-4.9891,-4.9939,-4.9951,-4.9973,-5.0007,-5.0047,-5.0069,-5.0118,-5.0146,-5.0184,-5.0162,-5.0102,-5.0277,-5.0189,-5.0273,-5.0274,-5.0313,-5.0311,-5.0571,-5.0333,-5.0333,-5.0332,-5.0332,0,-4.9857,-4.995,-4.9924,-4.9986,-5.0087,-5.0056,-5.0157,-5.0161,-5.0181,-5.0241,-5.0192,-5.0249,-5.0217,-5.0272,-5.0255,-5.0349,-5.0362,-5.0358,-5.0353,-5.0363,-5.0363,-5.0382,-5.0369,-5.0339,-5.0337,-5.0336,-5.0335,0,-5.0063,-5.005,-5.0155,-5.0168,-5.0174,-5.0248,-5.0258,-5.0315,-5.0308,-5.0385,-5.0401,-5.0391,-5.0452,-5.0434,-5.0501,-5.0489,-5.0608,-5.0588,-5.0599,-5.0594,-5.0679,-5.0671,-5.0959,-5.0994,-5.0734,-5.0737,-5.0739,0,-5.0195,-5.0265,-5.0286,-5.0322,-5.0338,-5.0399,-5.0432,-5.0404,-5.0441,-5.0475,-5.0527,-5.0584,-5.0628,-5.0728,-5.0726,-5.0776,-5.0756,-5.0853,-5.0763,-5.077,-5.0756,-5.0752,-5.0758,-5.0872,-5.0875,-5.0877,-5.0879,0,-5.0431,-5.042,-5.0471,-5.052,-5.0561,-5.0598,-5.063,-5.0663,-5.0635,-5.0679,-5.0741,-5.0775,-5.0842,-5.0899,-5.0943,-5.0954,-5.0912,-5.0907,-5.0929,-5.094,-5.0943,-5.0942,-5.0648,-5.0901,-5.0899,-5.0897,-5.0896,-5.0895,-5.0603,-5.0662,-5.0685,-5.0743,-5.0763,-5.0794,-5.0847,-5.0846,-5.0898,-5.095,-5.0929,-5.1,-5.1022,-5.1078,-5.1094,-5.1148,-5.111,-5.1143,-5.1151,-5.1159,-5.1169,-5.0935,-5.1156,-5.1155,-5.1155,-5.1154,-5.1154,0,-5.0835,-5.0846,-5.09,-5.0946,-5.0991,-5.0947,-5.0979,-5.1019,-5.1083,-5.1107,-5.1151,-5.122,-5.1274,-5.1275,-5.1325,-5.1367,-5.1349,-5.1381,-5.1378,-5.1381,-5.1201,-5.1176,-5.1395,-5.1395,-5.1395,-5.1395,-5.1395,-5.1395,-5.0961,-5.1057,-5.1049,-5.1153,-5.1163,-5.1233,-5.1254,-5.1281,-5.13,-5.1381,-5.1425,-5.1425,-5.144,-5.1489,-5.1536,-5.1534,-5.1555,-5.1594,-5.1586,-5.1417,-5.1394,-5.1371,-5.1348,-5.1599,-5.1599,-5.1761,-5.1762,-5.1764]}]]